Regional Weather Roundup
Issued by NWS Newport/Morehead, NC

Current Version | Previous Version | Text Only | Print | Product List | Glossary On
Versions: 1 2 3 4 5 6 7 8 9 10 11 12 13 14 15 16 17 18 19 20 21 22 23 24 25 26 27 28 29 30 31 32 33 34 35 36 37 38 39 40 41 42 43 44 45 46 47 48 49 50
000
ASUS42 KMHX 181922
RWRMHX
WEATHER ROUNDUP FOR EASTERN NORTH CAROLINA
NATIONAL WEATHER SERVICE NEWPORT/MOREHEAD CITY NC
200 PM EST THU DEC 18 2014

NOTE: "FAIR" INDICATES FEW OR NO CLOUDS BELOW 12,000 FEET
WITH NO SIGNIFICANT WEATHER AND/OR OBSTRUCTIONS TO VISIBILITY

NCZ015>017-031-032-045>047-102-103-182000-
NORTH COAST

CITY           SKY/WX    TMP DP  RH WIND       PRES   REMARKS
EDENTON        SUNNY     47  28  47 W6        30.11F
ELIZABETH CITY SUNNY     51  26  37 CALM      30.10F
KITTY HAWK     CLEAR     45  31  59 N6        30.09F
MANTEO         SUNNY     44  30  57 N8        30.11F

$$

NCZ045>047-081-094-103-104-182000-
CENTRAL COAST

CITY           SKY/WX    TMP DP  RH WIND       PRES   REMARKS
FRISCO         SUNNY     48  35  60 MISG      30.10F
SWANQUARTER      N/A     48 N/A N/A W7        30.06S

$$

NCZ095-097-098-100-101-182000-
SOUTHERN COAST

CITY           SKY/WX    TMP DP  RH WIND       PRES   REMARKS
BEAUFORT       SUNNY     51  29  42 NE7       30.10F
CEDAR ISLAND     N/A     46 N/A N/A NW5       30.15S
JACKSONVILLE   SUNNY     54  29  38 N6        30.10F
PINEY ISLAND   CLEAR     50  30  46 N8        30.11F
WILMINGTON     SUNNY     57  28  33 CALM      30.09F


$$

NCZ011>013-027>030-043-044-078>080-089-090>093-098-182000-
COASTAL PLAIN

CITY           SKY/WX    TMP DP  RH WIND       PRES   REMARKS
AHOSKIE        SUNNY     46  27  48 CALM      30.11F
CLINTON        PTSUNNY   51  31  46 CALM      30.11F
ELIZABETHTOWN  SUNNY     54  28  36 CALM      30.10F
GOLDSBORO      MOSUNNY   51  31  46 CALM      30.10F
GREENVILLE     SUNNY     50  28  43 N3        30.12F
HAVELOCK       MOSUNNY   52  31  44 NE3       30.12F
KENANSVILLE    MOSUNNY   51  27  38 W3        30.11F
KINSTON        SUNNY     50  28  43 CALM      30.11F
NEW BERN       SUNNY     53  26  35 CALM      30.11F
RICHLANDS      SUNNY     52  28  40 W6        30.10F
ROCKY MOUNT    MOSUNNY   49  25  39 NW6       30.11F
WASHINGTON     SUNNY     49  27  43 CALM      30.11F
WHITEVILLE     SUNNY     56  29  35 CALM      30.09F

$$

AMZ130-135-150-152-154-156-158-170-250-252-270-ANZ085-086-088-633-658-670-182000-
MARINE OBSERVATIONS

STATION/POSITION TIME  TEMP    WIND        PRES    WAVE   SWELL
                       AIR SEA DIR/SP/G            HT/PER HT/PER
                 (UTC) (F)     (DEG/KT/KT) (MB)    (FT/S) (FT/S)
CHESAPEAKE LIGHT 1900   42                 1019.3
64 E VA BEACH    1900   43 54  330/ 14/ 19 1018.0    5/ 7   2/ 8
DUCK             1900   42 49   10/  7/  9 1018.4
2 E DUCK         1900      49                N/A     4/ 6
10 NE DUCK       1900      52                N/A     5/ 6
OREGON INLET     1900   44 51   10/  7/ 11 1019.3
13E OREGON INLT  1900      53                N/A     5/ 6
HATTERAS CG      1900   45 55   20/  8/ 10 1019.4
DIAMOND BUOY     1900   48                 1019.5    3/ 6
17 S OCRACOKE    NOT AVBL
CAPE LOOKOUT     1900   49     360/  7/  9 1018.9
BEAUFORT LAB     1900   49 53   10/  7/  9 1018.2
30 SE NEW RIVER  1900   51 60   40/  8/ 10 1019.6    2/ 4   2/ 4
5 SE WRIGHTSVLE  1900   51 55   90/  8/ 12 1019.2
225 S CAPE HAT   NOT AVBL
41 SE CHARLESTON 1900   61 73  300/  2/  6 1018.5    1/10   2/10

$$


USA.gov is the U.S. government's official web portal to all federal, state and local government web resources and services.